Weather Roundup
Issued by NWS Chicago, IL

Home | Current Version | Previous Version | Graphics & Text | Print | Product List | Glossary On
Versions: 1 2 3 4 5 6 7 8 9 10 11 12 13 14 15 16 17 18 19 20 21 22 23 24 25 26 27 28 29 30 31 32 33 34 35 36 37 38 39 40 41 42 43 44 45 46 47 48 49 50
000
NZUS59 KLOT 212358
HRRLOT

CHICAGO AREA WEATHER ROUNDUP
NATIONAL WEATHER SERVICE CHICAGO/ROMEOVILLE IL
600 PM CST SUN DEC 21 2014

NOTE: "FAIR" INDICATES FEW OR NO CLOUDS BELOW 12,000 FEET WITH NO
SIGNIFICANT WEATHER AND/OR OBSTRUCTIONS TO VISIBILITY.

* THESE STATIONS ARE NOT UNDER NWS QUALITY CONTROL. THEY ALSO MAY NOT
  REPORT WEATHER SUCH AS PRECIPITATION OR FOG.

ILZ005-006-012>014-019>023-220100-
NORTHEAST ILLINOIS

CITY           SKY/WX    TMP DP  RH WIND       PRES   REMARKS
OHARE          CLOUDY    35  28  75 S10       30.08S WCI  27
6HR MIN TEMP:  34; 6HR MAX TEMP:  36;

MIDWAY         NOT AVBL
AURORA         CLOUDY    37  29  72 SE9       30.07S
6HR MIN TEMP:  36; 6HR MAX TEMP:  39;

WAUKEGAN       NOT AVBL
DUPAGE AIRPORT CLOUDY    36  30  79 S14       30.07R
6HR MIN TEMP:  35; 6HR MAX TEMP:  38;

WHEELING       CLOUDY    35  28  75 S12       30.10R WCI  27
6HR MIN TEMP:  35; 6HR MAX TEMP:  37;

NORTHERLY IS     N/A     36  29  76 S9          N/A
$$

WIZ051-052-058>065-066-070>072-220100-
SOUTHEAST WISCONSIN

CITY           SKY/WX    TMP DP  RH WIND       PRES   REMARKS
MILWAUKEE      MOCLDY    36  29  75 S13       30.06S
6HR MIN TEMP:  36; 6HR MAX TEMP:  37;

WAUKESHA       CLOUDY    34  28  80 SE12      30.04S WCI  25
$$

INZ001>003-010>013-019-020-220100-
NORTHWEST INDIANA

CITY           SKY/WX    TMP DP  RH WIND       PRES   REMARKS
GARY*          CLOUDY    37  27  65 SE7       30.11S
MICHIGAN CITY* NOT AVBL
RENSSELAER*    NOT AVBL
$$

LMZ740>746-220100-
SOUTHERN LAKE MICHIGAN

STATION/POSITION TIME  SKY/WX   TEMP WIND        PRES    VSBY
                                AIR  DIR/SP/G
                 (UTC)          (F)  (DEG/KT/KT) (MB)    (MI)
HARRISON CRIB    2300            35  160/ 15/ 18   N/A
BURNHAM HARBOR   2300            35  160/  7/ 11   N/A
CALUMET HARBOR   2300            36  150/  6/  8 1018.1F
BURNS HARBOR     NOT AVBL
MICHIGAN CITY    NOT AVBL
$$

ABBREVIATIONS USED IN REMARKS
   TC - TEMPERATURE IN CELSIUS
  WCI - WIND CHILL INDEX
   HX - HEAT INDEX
  VSB - VISIBILITY
$$



USA.gov is the U.S. government's official web portal to all federal, state and local government web resources and services.